Photometre #719[NE_1.6] Dunkerque AOT

File : 20200923_719.hum

23/09/2020,06:36:23,TEMP=16.9,BA=5.60,STAT.A=0.0,ExtBa=13.86
23/09/2020,06:40:30,TEMP=17.3,BA=5.60,STAT.A=0.0,ExtBa=13.84
23/09/2020,06:45:20,TEMP=17.4,BA=5.60,STAT.A=0.0,ExtBa=13.83
23/09/2020,06:51:04,TEMP=17.4,BA=5.60,STAT.A=0.0,ExtBa=13.85
23/09/2020,06:58:01,TEMP=17.4,BA=5.60,STAT.A=0.0,ExtBa=13.87
23/09/2020,07:06:38,TEMP=17.4,BA=5.48,STAT.A=0.0,ExtBa=13.87
23/09/2020,07:17:35,TEMP=17.5,BA=5.60,STAT.B=0.0,ExtBa=13.86
23/09/2020,07:22:51,TEMP=17.7,BA=5.52,STAT.A=0.0,ExtBa=13.86
23/09/2020,07:28:46,TEMP=17.9,BA=5.52,STAT.A=0.0,ExtBa=13.84
23/09/2020,07:35:27,TEMP=18.1,BA=5.36,STAT.A=0.0,ExtBa=13.87
23/09/2020,07:43:07,TEMP=18.3,BA=5.60,STAT.A=0.0,ExtBa=13.87
23/09/2020,07:51:58,TEMP=18.5,BA=5.60,STAT.C=0.0,ExtBa=13.87
23/09/2020,08:02:23,TEMP=18.6,BA=5.60,STAT.A=0.0,ExtBa=13.86
23/09/2020,08:14:26,TEMP=18.8,BA=5.60,STAT.h
23/09/2020,08:29:37,TEMP=18.8,BA=5.60,STAT.h
23/09/2020,08:42:55,TEMP=18.8,BA=5.60,STAT.h
23/09/2020,08:57:55,TEMP=18.8,BA=5.60,STAT.h
23/09/2020,09:12:55,TEMP=18.8,BA=5.60,STAT.h
23/09/2020,09:27:55,TEMP=18.8,BA=5.60,STAT.h
23/09/2020,09:42:55,TEMP=18.8,BA=5.60,STAT.h
23/09/2020,09:57:55,TEMP=18.8,BA=5.60,STAT.h
23/09/2020,10:12:55,TEMP=18.8,BA=5.60,STAT.h
23/09/2020,10:27:55,TEMP=18.8,BA=5.60,STAT.h
23/09/2020,10:42:55,TEMP=18.8,BA=5.60,STAT.h
23/09/2020,10:57:55,TEMP=18.8,BA=5.60,STAT.h
23/09/2020,11:12:55,TEMP=18.8,BA=5.60,STAT.h
23/09/2020,11:27:55,TEMP=18.8,BA=5.60,STAT.h
23/09/2020,11:42:55,TEMP=18.8,BA=5.60,STAT.h
23/09/2020,11:57:55,TEMP=18.8,BA=5.60,STAT.h
23/09/2020,12:13:17,TEMP=20.2,BA=5.60,STAT.D=0.0,ExtBa=13.86
23/09/2020,12:28:17,TEMP=20.7,BA=5.60,STAT.D=0.0,ExtBa=13.86
23/09/2020,12:43:19,TEMP=20.9,BA=5.60,STAT.F,ExtBa=13.82
23/09/2020,12:58:17,TEMP=20.3,BA=5.60,STAT.D=0.0,ExtBa=13.85
23/09/2020,13:13:17,TEMP=20.3,BA=5.60,STAT.D=0.0,ExtBa=13.85
23/09/2020,13:28:17,TEMP=20.6,BA=5.60,STAT.D=0.0,ExtBa=13.85
23/09/2020,13:43:19,TEMP=20.9,BA=5.60,STAT.F,ExtBa=13.82
23/09/2020,13:58:17,TEMP=21.0,BA=5.60,STAT.D=0.0,ExtBa=13.85
23/09/2020,14:13:17,TEMP=21.1,BA=5.60,STAT.D=0.0,ExtBa=13.84
23/09/2020,14:28:17,TEMP=21.6,BA=5.56,STAT.D=0.0,ExtBa=13.84
23/09/2020,14:43:18,TEMP=21.3,BA=5.60,STAT.F,ExtBa=13.81
23/09/2020,14:56:36,TEMP=20.8,BA=5.56,STAT.A=0.0,ExtBa=13.84
23/09/2020,15:11:47,TEMP=18.7,BA=5.56,STAT.A=0.0,ExtBa=13.83
23/09/2020,15:24:13,TEMP=18.5,BA=5.60,STAT.A=0.0,ExtBa=13.83
23/09/2020,15:34:38,TEMP=19.1,BA=5.56,STAT.C=0.0,ExtBa=13.84
23/09/2020,15:43:29,TEMP=19.5,BA=5.56,STAT.A=0.0,ExtBa=13.84
23/09/2020,15:51:09,TEMP=19.6,BA=5.60,STAT.A=0.0,ExtBa=13.84
23/09/2020,15:57:50,TEMP=19.6,BA=5.60,STAT.A=0.0,ExtBa=13.83
23/09/2020,16:03:45,TEMP=19.6,BA=5.48,STAT.A=0.0,ExtBa=13.83
23/09/2020,16:09:01,TEMP=19.6,BA=5.48,STAT.B=0.0,ExtBa=13.83
23/09/2020,16:19:57,TEMP=19.5,BA=5.36,STAT.A=0.0,ExtBa=13.84
23/09/2020,16:28:33,TEMP=18.9,BA=5.40,STAT.A=0.0,ExtBa=13.84
23/09/2020,16:35:08,TEMP=19.0,BA=5.36,STAT.h
23/09/2020,16:40:53,TEMP=19.0,BA=5.60,STAT.h
23/09/2020,16:45:43,TEMP=19.0,BA=5.60,STAT.h
23/09/2020,16:49:50,TEMP=19.0,BA=5.60,STAT.h